Powrót do katalogu

CENTISPACE-2 S1

AktywnyNawigacjaLEO
NORAD 68350·PAYLOAD·🇨🇳 China

Wystrzelony Mar 22, 2026 z Yellow Sea Launch Area

Loading…

Następne Przeloty (najbliższe 24 godziny)

TLE

ŚwieżeSource: Space-Track

Epoka: Sep 13, 2026, 22:33 UTC

1 68350U 26060A   26256.93973463 -.00000041  00000-0  50767-4 0  9996
2 68350  54.9829  51.1830 0010778 254.6190 105.3595 14.23217323 25596

Śledź CENTISPACE-2 S1 w czasie rzeczywistym z AllMySat

Download on the App Store